sat.trackr.live / text

‹ back to catalog

STARLINK-35815

NORAD 66577 · 2025-268W

PAYLOAD ACTIVE UNKNOWN

§ Identity

Operator
Country
US
Launch date
2025-11-21
Launch site
AFETR
Launch vehicle
Mass (kg)
RCS (m²)

Purposes: comms

External: N2YO · Heavens-Above · Gunter

§ Orbital elements

Epoch: 2026-09-20T21:28:35.815872Z

Period
94.27 min
Inclination
43.0028°
Eccentricity
0.0001736
Mean motion
15.27582102 rev/d
Perigee alt
481.9 km
Apogee alt
484.2 km
Semi-major
6,861.2 km
B*
3.9794e-4
RAAN
324.6631°
Arg perigee
266.7860°
Mean anomaly
93.2793°
Rev number
4,781

§ Raw data

STARLINK-358151 66577U 25268W   26263.89485898  .00010705  00000+0  39794-3 0  99992 66577  43.0028 324.6631 0001736 266.7860  93.2793 15.27582102 47813

JSON: /api/v1/satellites/66577 · /tle

For live sub-satellite position, see the globe view (requires WebGL).

§ Visibility from observer

Set your observer location to see the next 7 days of passes ≥ 10°. The values pass through the URL so the page stays shareable.

No JS? Fill the form by hand. The geolocation button needs JavaScript.